Danbury, CT

3:45 AM EDT on October 24, 2017 (GMT -0400)
Danbury Municipal

Weather History for KDXR - July, 2013

Change the Weather History Date:

Friday, July 19, 2013

  Actual Average Record
Temperature  
Mean Temperature 83 °F -  
Max Temperature 95 °F 85 °F 104 °F (1991)
Min Temperature 73 °F 59 °F 6 °F (1986)
Cooling Degree Days 18    
Growing Degree Days 33 (Base 50)    
Moisture  
Dew Point 72 °F    
Average Humidity 66    
Maximum Humidity 91    
Minimum Humidity 46    
Precipitation  
Precipitation 0.00 in - - ()
Sea Level Pressure  
Sea Level Pressure 29.89 in    
Wind  
Wind Speed 5 mph (SW)    
Max Wind Speed 15 mph    
Max Gust Speed 22 mph    
Visibility 7 miles    
Events      
Averages and records for this station are not official NWS values.
T = Trace of Precipitation, MM = Missing Value Source: NWS Daily Summary

Daily Weather History Graph

Daily Weather History Graph

Search for Another Location

Airport or City:

Trip Planner

Search our weather history database for the weather conditions in past years. The results will help you decide how hot, cold, wet, or windy it might be!

Date:

Astronomy

Jul. 19, 2013 Rise Set
Actual Time 5:37 AM EDT 8:22 PM EDT
Civil Twilight 5:04 AM EDT 8:55 PM EDT
Nautical Twilight 4:23 AM EDT 9:35 PM EDT
Astronomical Twilight 3:37 AM EDT 10:22 PM EDT
Moon 5:22 PM EDT (7/19) 2:15 AM EDT (7/19)
Length of Visible Light 15h 50m
Length of Day
14h 45m
Waxing Gibbous, 86% of the Moon is Illuminated
Jul 19
Waxing Gibbous
Jul 22
Full
Jul 29
Last Quarter
Aug 6
New
Aug 14
First Quarter

Hourly Weather History & Observations

Time (EDT) Temp. Heat Index Dew Point Humidity Pressure Visibility Wind Dir Wind Speed Gust Speed Precip Events Conditions
12:53 AM 75.9 °F - 72.0 °F 87% 29.98 in 8.0 mi WSW 4.6 mph - N/A   Clear
1:53 AM 75.9 °F - 72.0 °F 87% 29.98 in 7.0 mi Calm Calm - N/A   Mostly Cloudy
2:53 AM 75.0 °F - 71.1 °F 87% 29.97 in 7.0 mi Calm Calm - N/A   Clear
3:53 AM 73.9 °F - 71.1 °F 91% 29.96 in 7.0 mi Calm Calm - N/A   Clear
4:53 AM 73.9 °F - 70.0 °F 87% 29.96 in 7.0 mi Calm Calm - N/A   Clear
5:53 AM 73.9 °F - 70.0 °F 87% 29.95 in 6.0 mi Calm Calm - N/A   Clear
6:53 AM 77.0 °F - 72.0 °F 84% 29.95 in 6.0 mi Calm Calm - N/A   Haze
7:53 AM 81.0 °F 85.2 °F 72.0 °F 74% 29.96 in 7.0 mi WSW 6.9 mph - N/A   Clear
8:53 AM 84.0 °F 90.2 °F 73.0 °F 69% 29.96 in 8.0 mi WSW 5.8 mph - N/A   Clear
9:53 AM 87.1 °F 94.5 °F 73.0 °F 63% 29.96 in 8.0 mi WSW 9.2 mph - N/A   Clear
10:53 AM 89.1 °F 97.0 °F 73.0 °F 59% 29.94 in 8.0 mi SW 10.4 mph 17.3 mph N/A   Clear
11:53 AM 91.0 °F 99.3 °F 73.0 °F 55% 29.93 in 7.0 mi WSW 12.7 mph - N/A   Clear
12:53 PM 93.0 °F 103.2 °F 73.9 °F 54% 29.90 in 7.0 mi SW 8.1 mph - N/A   Scattered Clouds
1:53 PM 93.9 °F 102.1 °F 72.0 °F 49% 29.88 in 7.0 mi WSW 12.7 mph 20.7 mph N/A   Scattered Clouds
2:53 PM 93.9 °F 100.3 °F 70.0 °F 46% 29.85 in 7.0 mi WSW 12.7 mph 21.9 mph N/A   Clear
3:53 PM 93.9 °F 100.8 °F 71.1 °F 47% 29.83 in 7.0 mi West 15.0 mph 21.9 mph N/A   Partly Cloudy
4:53 PM 93.0 °F 100.1 °F 71.1 °F 49% 29.81 in 6.0 mi SW 11.5 mph 19.6 mph N/A   Haze
5:53 PM 91.9 °F 98.4 °F 71.1 °F 50% 29.79 in 7.0 mi SW 10.4 mph - N/A   Partly Cloudy
6:53 PM 90.0 °F 96.9 °F 72.0 °F 55% 29.80 in 7.0 mi SW 6.9 mph - N/A   Clear
7:53 PM 89.1 °F 95.0 °F 71.1 °F 55% 29.81 in 7.0 mi SSW 5.8 mph - N/A   Clear
8:53 PM 87.1 °F 92.8 °F 71.1 °F 59% 29.82 in 8.0 mi SW 6.9 mph - N/A   Clear
9:53 PM 86.0 °F 91.5 °F 71.1 °F 61% 29.83 in 8.0 mi SW 8.1 mph - N/A   Clear
10:53 PM 86.0 °F 92.2 °F 72.0 °F 63% 29.81 in 7.0 mi SW 8.1 mph - N/A   Clear
11:53 PM 84.0 °F 90.2 °F 73.0 °F 69% 29.80 in 6.0 mi WSW 5.8 mph - N/A   Haze